| time (UTC) | temp C | wind direction | speed KPH | gust KPH | rain 1hr cm | rain 24hr cm | rain mn cm | humidity % | barometer mb |
| 20260505200105 | 8 | 353 | 3.2 | 4.8 | 0.00 | 0.00 | 0.00 | 77 | 1015.9 |
| 20260505195605 | 8 | 352 | 3.2 | 4.8 | 0.00 | 0.00 | 0.00 | 77 | 1015.9 |
| 20260505195106 | 8 | 353 | 3.2 | 4.8 | 0.00 | 0.00 | 0.00 | 77 | 1015.9 |
| 20260505194605 | 9 | 353 | 3.2 | 4.8 | 0.00 | 0.00 | 0.00 | 76 | 1015.9 |
| 20260505194105 | 9 | 353 | 4.8 | 8.0 | 0.00 | 0.00 | 0.00 | 76 | 1015.9 |
| 20260505193605 | 9 | 352 | 8.0 | 9.7 | 0.00 | 0.00 | 0.00 | 76 | 1015.9 |
| 20260505190105 | 10 | 2 | 8.0 | 9.7 | 0.00 | 0.00 | 0.00 | 75 | 1015.9 |
| 20260505185605 | 10 | 359 | 4.8 | 9.7 | 0.00 | 0.00 | 0.00 | 75 | 1015.9 |
| 20260505185105 | 10 | 7 | 4.8 | 9.7 | 0.00 | 0.00 | 0.00 | 73 | 1015.9 |
| 20260505184604 | 10 | 0 | 8.0 | 12.9 | 0.00 | 0.00 | 0.00 | 73 | 1015.9 |
| 20260505184105 | 10 | 347 | 8.0 | 11.3 | 0.00 | 0.00 | 0.00 | 73 | 1015.9 |
| 20260505183605 | 10 | 8 | 4.8 | 12.9 | 0.00 | 0.00 | 0.00 | 72 | 1015.9 |
| 20260505183105 | 10 | 22 | 8.0 | 9.7 | 0.00 | 0.00 | 0.00 | 72 | 1015.9 |
| 20260505182605 | 10 | 357 | 6.4 | 14.5 | 0.00 | 0.00 | 0.00 | 73 | 1015.9 |
| 20260505182105 | 10 | 1 | 8.0 | 14.5 | 0.00 | 0.00 | 0.00 | 72 | 1015.9 |
| 20260505181605 | 10 | 335 | 9.7 | 16.1 | 0.00 | 0.00 | 0.00 | 72 | 1015.9 |
| 20260505181105 | 10 | 5 | 8.0 | 11.3 | 0.00 | 0.00 | 0.00 | 72 | 1015.9 |
| 20260505180605 | 10 | 346 | 8.0 | 12.9 | 0.00 | 0.00 | 0.00 | 71 | 1015.9 |
| 20260505180105 | 10 | 334 | 11.3 | 14.5 | 0.00 | 0.00 | 0.00 | 71 | 1015.9 |
| 20260505175606 | 10 | 2 | 8.0 | 14.5 | 0.00 | 0.00 | 0.00 | 70 | 1015.9 |
| 20260505175105 | 10 | 330 | 6.4 | 11.3 | 0.00 | 0.00 | 0.00 | 71 | 1015.9 |
| 20260505174605 | 10 | 4 | 9.7 | 14.5 | 0.00 | 0.00 | 0.00 | 70 | 1015.9 |
| 20260505173605 | 10 | 338 | 11.3 | 16.1 | 0.00 | 0.00 | 0.00 | 68 | 1015.9 |
| 20260505173105 | 11 | 324 | 9.7 | 14.5 | 0.00 | 0.00 | 0.00 | 70 | 1015.9 |
| 20260505172605 | 11 | 357 | 9.7 | 12.9 | 0.00 | 0.00 | 0.00 | 71 | 1015.9 |
| 20260505172105 | 10 | 313 | 11.3 | 16.1 | 0.00 | 0.00 | 0.00 | 73 | 1015.9 |
| 20260505170605 | 10 | 5 | 12.9 | 19.3 | 0.00 | 0.00 | 0.00 | 70 | 1015.9 |
| 20260505165605 | 10 | 339 | 8.0 | 12.9 | 0.00 | 0.00 | 0.00 | 68 | 1015.9 |
| 20260505165105 | 10 | 1 | 9.7 | 19.3 | 0.00 | 0.00 | 0.00 | 66 | 1015.9 |
| 20260505164105 | 10 | 4 | 8.0 | 16.1 | 0.00 | 0.00 | 0.00 | 69 | 1015.9 |
| 20260505163605 | 10 | 354 | 9.7 | 16.1 | 0.00 | 0.00 | 0.00 | 71 | 1015.9 |
| 20260505163105 | 10 | 347 | 11.3 | 19.3 | 0.00 | 0.00 | 0.00 | 72 | 1015.9 |
| 20260505162605 | 10 | 9 | 9.7 | 16.1 | 0.00 | 0.00 | 0.00 | 71 | 1015.9 |
| 20260505162105 | 10 | 332 | 9.7 | 16.1 | 0.00 | 0.00 | 0.00 | 72 | 1015.9 |
| 20260505161605 | 11 | 345 | 4.8 | 14.5 | 0.00 | 0.00 | 0.00 | 73 | 1015.9 |
| 20260505160605 | 10 | 309 | 9.7 | 16.1 | 0.00 | 0.00 | 0.00 | 72 | 1015.9 |
| 20260505160105 | 10 | 18 | 9.7 | 12.9 | 0.00 | 0.00 | 0.00 | 72 | 1015.9 |
| 20260505153104 | 10 | 8 | 6.4 | 12.9 | 0.00 | 0.00 | 0.00 | 71 | 1015.9 |
| 20260505152605 | 10 | 318 | 8.0 | 14.5 | 0.00 | 0.00 | 0.00 | 73 | 1015.9 |
| 20260505152105 | 10 | 353 | 8.0 | 16.1 | 0.00 | 0.00 | 0.00 | 73 | 1015.9 |
| 20260505151605 | 10 | 342 | 8.0 | 16.1 | 0.00 | 0.00 | 0.00 | 73 | 1015.9 |
| 20260505151105 | 10 | 342 | 11.3 | 14.5 | 0.00 | 0.00 | 0.00 | 70 | 1015.9 |
| 20260505150105 | 10 | 13 | 8.0 | 14.5 | 0.00 | 0.00 | 0.00 | 72 | 1015.9 |
| 20260505140605 | 10 | 344 | 8.0 | 14.5 | 0.00 | 0.00 | 0.00 | 79 | 1015.9 |
| 20260505140105 | 10 | 346 | 11.3 | 16.1 | 0.00 | 0.00 | 0.00 | 79 | 1015.9 |
| 20260505130105 | 10 | 353 | 8.0 | 16.1 | 0.00 | 0.00 | 0.00 | 75 | 1015.9 |
| 20260505124605 | 10 | 333 | 11.3 | 22.5 | 0.00 | 0.00 | 0.00 | 75 | 1015.9 |
| 20260505123605 | 10 | 318 | 8.0 | 19.3 | 0.00 | 0.00 | 0.00 | 77 | 1015.9 |
| 20260505123105 | 10 | 358 | 11.3 | 19.3 | 0.00 | 0.00 | 0.00 | 77 | 1015.9 |
| 20260505122605 | 10 | 351 | 9.7 | 19.3 | 0.00 | 0.00 | 0.00 | 78 | 1015.9 |
| 20260505122105 | 10 | 0 | 12.9 | 20.9 | 0.00 | 0.00 | 0.00 | 80 | 1015.9 |
| 20260505121605 | 10 | 339 | 9.7 | 19.3 | 0.00 | 0.00 | 0.00 | 80 | 1015.9 |
| 20260505121105 | 10 | 359 | 11.3 | 24.1 | 0.00 | 0.00 | 0.00 | 80 | 1015.9 |
| 20260505120606 | 10 | 348 | 14.5 | 19.3 | 0.00 | 0.00 | 0.00 | 79 | 1015.9 |
| 20260505120105 | 10 | 352 | 11.3 | 20.9 | 0.00 | 0.00 | 0.00 | 77 | 1015.9 |
| 20260505115605 | 10 | 324 | 14.5 | 22.5 | 0.00 | 0.00 | 0.00 | 77 | 1015.9 |
| 20260505115105 | 10 | 335 | 12.9 | 20.9 | 0.00 | 0.00 | 0.00 | 79 | 1015.9 |
| 20260505114605 | 10 | 331 | 14.5 | 22.5 | 0.00 | 0.00 | 0.00 | 78 | 1015.9 |
| 20260505114105 | 10 | 312 | 11.3 | 19.3 | 0.00 | 0.00 | 0.00 | 78 | 1015.9 |
| 20260505113605 | 10 | 340 | 11.3 | 19.3 | 0.00 | 0.00 | 0.00 | 77 | 1015.9 |
| 20260505113105 | 11 | 357 | 9.7 | 19.3 | 0.00 | 0.00 | 0.00 | 78 | 1015.9 |
| 20260505112605 | 11 | 330 | 9.7 | 19.3 | 0.00 | 0.00 | 0.00 | 77 | 1015.9 |
| 20260505111605 | 10 | 19 | 6.4 | 12.9 | 0.00 | 0.00 | 0.00 | 79 | 1015.9 |
| 20260505111105 | 10 | 357 | 9.7 | 19.3 | 0.00 | 0.00 | 0.00 | 79 | 1015.9 |
| 20260505110605 | 10 | 328 | 9.7 | 14.5 | 0.00 | 0.00 | 0.00 | 79 | 1015.9 |
| 20260505110106 | 10 | 21 | 4.8 | 19.3 | 0.00 | 0.00 | 0.00 | 80 | 1015.9 |
| 20260505102105 | 9 | 3 | 9.7 | 19.3 | 0.00 | 0.00 | 0.00 | 87 | 1015.9 |
| 20260505101605 | 9 | 338 | 11.3 | 19.3 | 0.00 | 0.00 | 0.00 | 87 | 1015.9 |
| 20260505101106 | 9 | 0 | 11.3 | 20.9 | 0.00 | 0.00 | 0.00 | 86 | 1015.9 |
| 20260505100606 | 9 | 335 | 11.3 | 20.9 | 0.00 | 0.00 | 0.00 | 86 | 1015.9 |
| 20260505100105 | 9 | 353 | 11.3 | 19.3 | 0.00 | 0.00 | 0.00 | 85 | 1015.9 |
| 20260505095605 | 9 | 343 | 14.5 | 20.9 | 0.00 | 0.00 | 0.00 | 85 | 1015.9 |
| 20260505095105 | 9 | 334 | 12.9 | 19.3 | 0.00 | 0.00 | 0.00 | 84 | 1015.9 |
| 20260505093605 | 9 | 332 | 12.9 | 29.0 | 0.00 | 0.00 | 0.00 | 85 | 1015.9 |
| 20260505093105 | 9 | 346 | 9.7 | 22.5 | 0.00 | 0.00 | 0.00 | 85 | 1015.9 |
| 20260505092105 | 10 | 329 | 14.5 | 20.9 | 0.00 | 0.00 | 0.00 | 86 | 1015.9 |
| 20260505091605 | 10 | 335 | 11.3 | 19.3 | 0.00 | 0.00 | 0.00 | 85 | 1015.9 |
| 20260505091105 | 10 | 346 | 9.7 | 19.3 | 0.00 | 0.00 | 0.00 | 85 | 1015.9 |
| 20260505090605 | 10 | 316 | 11.3 | 19.3 | 0.00 | 0.00 | 0.00 | 85 | 1015.9 |
| 20260505090105 | 10 | 314 | 9.7 | 19.3 | 0.00 | 0.00 | 0.00 | 86 | 1015.9 |
| 20260505085605 | 10 | 336 | 8.0 | 19.3 | 0.00 | 0.00 | 0.00 | 86 | 1015.9 |
| 20260505085105 | 10 | 310 | 8.0 | 11.3 | 0.00 | 0.00 | 0.00 | 87 | 1015.9 |
| 20260505084105 | 10 | 308 | 4.8 | 8.0 | 0.00 | 0.00 | 0.00 | 88 | 1015.9 |
| 20260505083605 | 9 | 300 | 8.0 | 11.3 | 0.00 | 0.00 | 0.00 | 89 | 1015.9 |
| 20260505083105 | 9 | 334 | 4.8 | 9.7 | 0.00 | 0.00 | 0.00 | 89 | 1015.9 |
| 20260505082605 | 9 | 326 | 4.8 | 8.0 | 0.00 | 0.00 | 0.00 | 89 | 1015.9 |
| 20260505082104 | 9 | 331 | 4.8 | 9.7 | 0.00 | 0.00 | 0.00 | 89 | 1015.9 |
| 20260505081605 | 9 | 329 | 8.0 | 11.3 | 0.00 | 0.00 | 0.00 | 90 | 1015.9 |
| 20260505081105 | 9 | 321 | 4.8 | 9.7 | 0.00 | 0.00 | 0.00 | 89 | 1015.9 |
| 20260505080606 | 9 | 316 | 4.8 | 11.3 | 0.00 | 0.00 | 0.00 | 90 | 1015.9 |
| 20260505080105 | 8 | 323 | 8.0 | 11.3 | 0.00 | 0.00 | 0.00 | 90 | 1015.9 |
| 20260505075605 | 8 | 324 | 3.2 | 11.3 | 0.00 | 0.00 | 0.00 | 90 | 1015.9 |
| 20260505074605 | 8 | 335 | 6.4 | 12.9 | 0.00 | 0.00 | 0.00 | 90 | 1015.9 |
| 20260505074105 | 8 | 334 | 4.8 | 9.7 | 0.00 | 0.00 | 0.00 | 91 | 1015.9 |
| 20260505073604 | 8 | 343 | 6.4 | 9.7 | 0.00 | 0.00 | 0.00 | 90 | 1015.9 |
| 20260505072605 | 8 | 324 | 3.2 | 8.0 | 0.00 | 0.00 | 0.00 | 91 | 1015.9 |
| 20260505072104 | 8 | 321 | 4.8 | 8.0 | 0.00 | 0.00 | 0.00 | 91 | 1015.9 |
| 20260505071605 | 8 | 323 | 4.8 | 9.7 | 0.00 | 0.00 | 0.00 | 91 | 1015.9 |
| 20260505070605 | 8 | 327 | 6.4 | 9.7 | 0.00 | 0.00 | 0.00 | 90 | 1015.9 |
| 20260505070105 | 8 | 337 | 4.8 | 11.3 | 0.00 | 0.00 | 0.00 | 90 | 1015.9 |
| 20260505065605 | 8 | 340 | 6.4 | 12.9 | 0.00 | 0.00 | 0.00 | 90 | 1015.9 |
| 20260505064604 | 8 | 356 | 4.8 | 8.0 | 0.00 | 0.00 | 0.00 | 90 | 1015.9 |
| 20260505064105 | 8 | 326 | 3.2 | 4.8 | 0.00 | 0.00 | 0.00 | 90 | 1015.9 |
| 20260505063605 | 8 | 336 | 3.2 | 8.0 | 0.00 | 0.00 | 0.00 | 90 | 1015.9 |
| 20260505063105 | 8 | 348 | 3.2 | 4.8 | 0.00 | 0.00 | 0.00 | 90 | 1015.9 |
| 20260505062105 | 8 | 332 | 4.8 | 8.0 | 0.00 | 0.00 | 0.00 | 89 | 1015.9 |
| 20260505061105 | 8 | 334 | 4.8 | 8.0 | 0.00 | 0.00 | 0.00 | 90 | 1015.9 |
| 20260505060605 | 8 | 328 | 4.8 | 9.7 | 0.00 | 0.00 | 0.00 | 90 | 1015.9 |
| 20260505060105 | 8 | 313 | 4.8 | 11.3 | 0.00 | 0.00 | 0.00 | 89 | 1015.9 |
| 20260505055605 | 7 | 334 | 3.2 | 8.0 | 0.00 | 0.00 | 0.00 | 89 | 1015.9 |
| 20260505055105 | 7 | 343 | 4.8 | 8.0 | 0.00 | 0.00 | 0.00 | 89 | 1015.9 |
| 20260505054105 | 7 | 319 | 4.8 | 8.0 | 0.00 | 0.00 | 0.00 | 89 | 1015.9 |
| 20260505053105 | 7 | 328 | 3.2 | 4.8 | 0.00 | 0.00 | 0.00 | 89 | 1015.9 |
| 20260505052605 | 7 | 322 | 3.2 | 8.0 | 0.00 | 0.00 | 0.00 | 89 | 1015.9 |
| 20260505052105 | 7 | 321 | 4.8 | 8.0 | 0.00 | 0.00 | 0.00 | 89 | 1015.9 |
| 20260505051605 | 7 | 309 | 3.2 | 8.0 | 0.00 | 0.00 | 0.00 | 89 | 1015.9 |
| 20260505051106 | 7 | 321 | 3.2 | 9.7 | 0.00 | 0.00 | 0.00 | 89 | 1015.9 |
| 20260505050606 | 7 | 321 | 4.8 | 11.3 | 0.00 | 0.00 | 0.00 | 89 | 1015.9 |
| 20260505050105 | 7 | 319 | 4.8 | 8.0 | 0.00 | 0.00 | 0.00 | 89 | 1015.9 |
| 20260505041105 | 7 | 327 | 4.8 | 8.0 | 0.00 | 0.00 | 0.00 | 92 | 1015.9 |
| 20260505040606 | 7 | 318 | 6.4 | 9.7 | 0.00 | 0.00 | 0.00 | 92 | 1015.9 |
| 20260505035605 | 7 | 306 | 4.8 | 9.7 | 0.00 | 0.00 | 0.00 | 92 | 1015.9 |
| 20260505035105 | 7 | 313 | 4.8 | 9.7 | 0.00 | 0.00 | 0.00 | 92 | 1015.9 |
| 20260505034605 | 7 | 321 | 3.2 | 8.0 | 0.00 | 0.00 | 0.00 | 92 | 1015.9 |
| 20260505034105 | 7 | 323 | 3.2 | 9.7 | 0.00 | 0.00 | 0.00 | 92 | 1015.9 |
| 20260505033605 | 7 | 317 | 4.8 | 8.0 | 0.00 | 0.00 | 0.00 | 92 | 1015.9 |
| 20260505033105 | 7 | 322 | 1.6 | 4.8 | 0.00 | 0.00 | 0.00 | 92 | 1015.9 |
| 20260505032605 | 7 | 328 | 3.2 | 8.0 | 0.00 | 0.00 | 0.00 | 92 | 1015.9 |
| 20260505031605 | 7 | 336 | 4.8 | 9.7 | 0.00 | 0.00 | 0.00 | 92 | 1015.9 |
| 20260505031105 | 7 | 326 | 1.6 | 4.8 | 0.00 | 0.00 | 0.00 | 92 | 1015.9 |
| 20260505030605 | 7 | 327 | 3.2 | 4.8 | 0.00 | 0.00 | 0.00 | 93 | 1015.9 |
| 20260505030105 | 7 | 315 | 4.8 | 8.0 | 0.00 | 0.00 | 0.00 | 93 | 1015.9 |
| 20260505025605 | 7 | 326 | 4.8 | 9.7 | 0.00 | 0.00 | 0.00 | 93 | 1015.9 |
| 20260505025105 | 7 | 301 | 6.4 | 8.0 | 0.00 | 0.00 | 0.00 | 93 | 1015.9 |
| 20260505024604 | 7 | 301 | 4.8 | 8.0 | 0.00 | 0.00 | 0.00 | 92 | 1015.9 |
| 20260505024105 | 7 | 301 | 3.2 | 4.8 | 0.00 | 0.00 | 0.00 | 92 | 1015.9 |
| 20260505023605 | 7 | 310 | 3.2 | 8.0 | 0.00 | 0.00 | 0.00 | 92 | 1015.9 |
| 20260505023105 | 7 | 303 | 3.2 | 4.8 | 0.00 | 0.00 | 0.00 | 92 | 1015.9 |
| 20260505022105 | 7 | 282 | 3.2 | 8.0 | 0.00 | 0.00 | 0.00 | 93 | 1015.9 |
| 20260505021605 | 7 | 279 | 4.8 | 8.0 | 0.00 | 0.00 | 0.00 | 93 | 1015.9 |
| 20260505020605 | 7 | 288 | 4.8 | 9.7 | 0.00 | 0.00 | 0.00 | 92 | 1015.9 |
| 20260505015605 | 7 | 303 | 4.8 | 9.7 | 0.00 | 0.00 | 0.00 | 92 | 1015.9 |
| 20260505015105 | 7 | 299 | 6.4 | 9.7 | 0.00 | 0.00 | 0.00 | 92 | 1015.9 |
| 20260505014605 | 7 | 289 | 8.0 | 9.7 | 0.00 | 0.00 | 0.00 | 92 | 1015.9 |
| 20260505014106 | 7 | 314 | 8.0 | 11.3 | 0.00 | 0.00 | 0.00 | 92 | 1015.9 |
| 20260505013605 | 7 | 283 | 8.0 | 11.3 | 0.00 | 0.00 | 0.00 | 91 | 1015.9 |
| 20260505013105 | 7 | 311 | 8.0 | 12.9 | 0.00 | 0.00 | 0.00 | 91 | 1015.9 |
| 20260505012605 | 7 | 305 | 4.8 | 9.7 | 0.00 | 0.00 | 0.00 | 91 | 1015.9 |
| 20260505012105 | 7 | 312 | 4.8 | 11.3 | 0.00 | 0.00 | 0.00 | 91 | 1015.9 |
| 20260505011605 | 8 | 302 | 8.0 | 12.9 | 0.00 | 0.00 | 0.00 | 90 | 1015.9 |
| 20260505010606 | 7 | 301 | 8.0 | 11.3 | 0.00 | 0.00 | 0.00 | 89 | 1015.9 |
| 20260505010104 | 7 | 306 | 4.8 | 9.7 | 0.00 | 0.00 | 0.00 | 89 | 1015.9 |
| 20260505005605 | 7 | 316 | 6.4 | 9.7 | 0.00 | 0.00 | 0.00 | 89 | 1015.9 |
| 20260505005105 | 8 | 317 | 6.4 | 9.7 | 0.00 | 0.00 | 0.00 | 89 | 1015.9 |
| 20260505004105 | 8 | 300 | 4.8 | 8.0 | 0.00 | 0.00 | 0.00 | 88 | 1015.9 |
| 20260505003605 | 8 | 281 | 3.2 | 4.8 | 0.00 | 0.00 | 0.00 | 88 | 1015.9 |
| 20260505003105 | 8 | 269 | 4.8 | 8.0 | 0.00 | 0.00 | 0.00 | 88 | 1015.9 |
| 20260505002605 | 8 | 263 | 4.8 | 8.0 | 0.00 | 0.00 | 0.00 | 88 | 1015.9 |
| 20260505002105 | 8 | 278 | 4.8 | 8.0 | 0.00 | 0.00 | 0.00 | 88 | 1015.9 |
| 20260505001105 | 7 | 304 | 4.8 | 8.0 | 0.00 | 0.00 | 0.00 | 87 | 1015.9 |
| 20260505000605 | 7 | 305 | 3.2 | 8.0 | 0.00 | 0.00 | 0.00 | 87 | 1015.9 |
| 20260505000105 | 7 | 301 | 3.2 | 4.8 | 0.00 | 0.00 | 0.00 | 87 | 1015.9 |
| 20260504235605 | 7 | 311 | 3.2 | 8.0 | 0.00 | 0.00 | 0.00 | 87 | 1015.9 |
| 20260504235104 | 8 | 309 | 4.8 | 4.8 | 0.00 | 0.00 | 0.00 | 87 | 1015.9 |
| 20260504234605 | 8 | 305 | 3.2 | 4.8 | 0.00 | 0.00 | 0.00 | 87 | 1015.9 |
| 20260504234105 | 8 | 311 | 3.2 | 8.0 | 0.00 | 0.00 | 0.00 | 87 | 1015.9 |
| 20260504233605 | 8 | 315 | 3.2 | 4.8 | 0.00 | 0.00 | 0.00 | 87 | 1015.9 |
| 20260504233105 | 8 | 320 | 3.2 | 8.0 | 0.00 | 0.00 | 0.00 | 87 | 1015.9 |
| 20260504232605 | 8 | 311 | 3.2 | 4.8 | 0.00 | 0.00 | 0.00 | 87 | 1015.9 |
| 20260504232105 | 8 | 315 | 3.2 | 4.8 | 0.00 | 0.00 | 0.00 | 87 | 1015.9 |
| 20260504231605 | 8 | 312 | 1.6 | 4.8 | 0.00 | 0.00 | 0.00 | 87 | 1015.9 |
| 20260504231105 | 8 | 309 | 1.6 | 4.8 | 0.00 | 0.00 | 0.00 | 87 | 1015.9 |
| 20260504230605 | 8 | 307 | 3.2 | 4.8 | 0.00 | 0.00 | 0.00 | 87 | 1015.9 |
| 20260504230105 | 8 | 310 | 3.2 | 4.8 | 0.00 | 0.00 | 0.00 | 86 | 1015.9 |
| 20260504225605 | 8 | 314 | 3.2 | 8.0 | 0.00 | 0.00 | 0.00 | 86 | 1015.9 |
| 20260504225105 | 8 | 319 | 3.2 | 4.8 | 0.00 | 0.00 | 0.00 | 86 | 1015.9 |
| 20260504224605 | 8 | 313 | 3.2 | 4.8 | 0.00 | 0.00 | 0.00 | 86 | 1015.9 |
| 20260504223604 | 8 | 311 | 3.2 | 8.0 | 0.00 | 0.00 | 0.00 | 86 | 1015.9 |
| 20260504223105 | 8 | 316 | 1.6 | 4.8 | 0.00 | 0.00 | 0.00 | 86 | 1015.9 |
| 20260504222605 | 8 | 319 | 3.2 | 4.8 | 0.00 | 0.00 | 0.00 | 85 | 1015.9 |
| 20260504222105 | 8 | 322 | 3.2 | 4.8 | 0.00 | 0.00 | 0.00 | 85 | 1015.9 |
| 20260504221105 | 8 | 320 | 3.2 | 4.8 | 0.00 | 0.00 | 0.00 | 85 | 1015.9 |
| 20260504220605 | 8 | 317 | 1.6 | 4.8 | 0.00 | 0.00 | 0.00 | 85 | 1015.9 |
| 20260504215605 | 8 | 320 | 3.2 | 4.8 | 0.00 | 0.00 | 0.00 | 85 | 1015.9 |
| 20260504214605 | 9 | 313 | 4.8 | 4.8 | 0.00 | 0.00 | 0.00 | 85 | 1015.9 |
| 20260504214105 | 9 | 323 | 3.2 | 4.8 | 0.00 | 0.00 | 0.00 | 86 | 1015.9 |
| 20260504213105 | 9 | 318 | 3.2 | 4.8 | 0.00 | 0.00 | 0.00 | 86 | 1015.9 |
| 20260504212105 | 9 | 331 | 3.2 | 8.0 | 0.00 | 0.00 | 0.00 | 86 | 1015.9 |
| 20260504211605 | 9 | 331 | 3.2 | 8.0 | 0.00 | 0.00 | 0.00 | 86 | 1015.9 |
| 20260504211104 | 9 | 336 | 4.8 | 4.8 | 0.00 | 0.00 | 0.00 | 86 | 1015.9 |
| 20260504210605 | 9 | 337 | 3.2 | 8.0 | 0.00 | 0.00 | 0.00 | 87 | 1015.9 |
| 20260504210105 | 9 | 359 | 3.2 | 4.8 | 0.00 | 0.00 | 0.00 | 87 | 1015.9 |
| 20260504205605 | 9 | 4 | 3.2 | 4.8 | 0.00 | 0.00 | 0.00 | 87 | 1015.9 |
| 20260504204605 | 9 | 4 | 0.0 | 0.0 | 0.00 | 0.00 | 0.00 | 87 | 1015.9 |
| 20260504204105 | 9 | 4 | 0.0 | 0.0 | 0.00 | 0.00 | 0.00 | 86 | 1015.9 |
| 20260504203604 | 9 | 4 | 0.0 | 0.0 | 0.00 | 0.00 | 0.00 | 86 | 1015.9 |
| 20260504203105 | 9 | 4 | 0.0 | 0.0 | 0.00 | 0.00 | 0.00 | 86 | 1015.9 |
| 20260504202604 | 9 | 4 | 1.6 | 4.8 | 0.00 | 0.00 | 0.00 | 86 | 1015.9 |
| 20260504202105 | 9 | 4 | 3.2 | 4.8 | 0.00 | 0.00 | 0.00 | 86 | 1015.9 |
| 20260504201605 | 9 | 4 | 4.8 | 4.8 | 0.00 | 0.00 | 0.00 | 85 | 1015.9 |
| 20260504201106 | 10 | 4 | 3.2 | 4.8 | 0.00 | 0.00 | 0.00 | 85 | 1015.9 |
| 20260504200604 | 10 | 4 | 3.2 | 4.8 | 0.00 | 0.00 | 0.00 | 85 | 1015.9 |